Voltar ao catálogo

STARLINK-30616

AtivoComunicaçõesVLEO
NORAD 58105·PAYLOAD·🇺🇸 United States

Lançado Oct 21, 2023 de Vandenberg Space Force Base

Loading…

Próximas Passagens (próximas 24 horas)

TLE

AtualizadoSource: CelesTrak SupGP

Época: Sep 15, 2026, 02:49 UTC

1 58105C 23161J   26258.11784722  .00071893  00000+0  21236-2 0  2588
2 58105  53.1597 349.0857 0001150  83.9435 324.6164 15.34362352    17

Acompanhe STARLINK-30616 em tempo real com AllMySat

Download on the App Store